This demonstration page uses our WeatherBlox Daily Observations layout. Learn more.

Left ArrowRight Arrow

Hourly Observations for February 17, 2017

Temp ( °F °C ) Dew Point ( °F °C ) Humidity (%) Winds ( mph kmh ) Pressure ( in mb ) Visibility ( mi km ) Precip ( " mm )
12:53 am 00:53 Clear 40 4.4 34 1.1 79 79 SW 18 30 29.37 995 10 16 0.00 0.00
1:53 am 01:53 Clear 41 5 34 1.1 76 76 SW 20 31 29.38 995 10 16 0.00 0.00
2:53 am 02:53 Clear 42 5.6 34 1.1 73 73 SW 23 37 29.38 995 10 16 0.00 0.00
3:53 am 03:53 Mostly Clear 41 5 33 0.6 73 73 WSW 13 20 29.44 997 10 16 0.00 0.00
4:53 am 04:53 Mostly Clear 39 3.9 32 0 76 76 SW 16 26 29.47 998 10 16 0.00 0.00
5:53 am 05:53 Clear 38 3.3 32 0 79 79 SSW 13 20 29.50 999 10 16 0.00 0.00
6:53 am 06:53 Clear 36 2.2 31 -0.6 82 82 SW 15 24 29.53 1000 10 16 0.00 0.00
7:53 am 07:53 Sunny 37 2.8 31 -0.6 79 79 WSW 8 13 29.56 1001 10 16 0.00 0.00
8:53 am 08:53 Sunny 42 5.6 33 0.6 71 71 WSW 12 19 29.58 1002 10 16 0.00 0.00
9:53 am 09:53 Sunny 47 8.3 34 1.1 61 61 WSW 12 19 29.59 1002 10 16 0.00 0.00
10:53 am 10:53 Sunny 46 7.8 34 1.1 63 63 SW 20 31 29.61 1003 10 16 0.00 0.00
11:53 am 11:53 Sunny 50 10 35 1.7 57 57 SW 18 30 29.62 1003 10 16 0.00 0.00
12:53 pm 12:53 Mostly Cloudy 50 10 34 1.1 54 54 W 16 26 29.63 1003 10 16 0.00 0.00
1:53 pm 13:53 Sunny 53 11.7 31 -0.6 43 43 W 24 39 29.61 1003 10 16 0.00 0.00
2:53 pm 14:53 Sunny 53 11.7 30 -1.1 41 41 W 20 31 29.60 1002 10 16 0.00 0.00
3:53 pm 15:53 Sunny 52 11.1 29 -1.7 41 41 W 21 33 29.60 1002 10 16 0.00 0.00
4:53 pm 16:53 Sunny 49 9.4 29 -1.7 46 46 W 16 26 29.61 1003 10 16 0.00 0.00
5:53 pm 17:53 Clear 42 5.6 31 -0.6 65 65 NW 7 11 29.63 1003 10 16 0.00 0.00
6:53 pm 18:53 Clear 35 1.7 29 -1.7 78 78 S 7 11 29.66 1005 10 16 0.00 0.00
7:53 pm 19:53 Clear 34 1.1 28 -2.2 79 79 S 9 15 29.67 1005 10 16 0.00 0.00
8:53 pm 20:53 Clear 33 0.6 27 -2.8 78 78 S 8 13 29.66 1005 10 16 0.00 0.00
9:53 pm 21:53 Clear 32 0 27 -2.8 82 82 Calm 29.66 1005 10 16 0.00 0.00
10:53 pm 22:53 Clear 29 -1.7 27 -2.8 92 92 Calm 29.66 1005 10 16 0.00 0.00
11:53 pm 23:53 Clear 29 -1.7 27 -2.8 92 92 Calm 29.66 1004 10 16 0.00 0.00

Powered by AerisWeather